Flag for Portugal Weather past 2 weeks in Ponta Delgada, Azores, Portugal

Now
61 °F

Drizzle. Fog.


Feels Like: 61 °F
Forecast: 60 / 67 °F
Wind: 10 mph from West

Location: Ponta Delgada / Nordela Acores

Current Time: Apr 28, 2015 at 11:16:40 AM

Latest Report: Apr 28, 2015 at 10:30 AM


Visibility: 2 mi

Pressure: 30.15 "Hg

Humidity: 100%

Dew point: 61 °F

Location of Ponta DelgadaLocation

Historic Weather in Ponta Delgada — Graph

°F

Ponta Delgada temperature yesterday

Maximum temperature yesterday: 63 °F (at 3:50 PM)
Minimum temperature yesterday: 59 °F (at 12:00 AM)
Average temperature yesterday: 61 °F

Past Weeks' High & Low Weather Summary

 TemperatureHumidityPressure
High64 °F (Apr 26, 3:00 PM)100% (Apr 22, 4:00 AM)30.36 "Hg (Apr 22, 4:00 AM)
Low50 °F (Apr 17, 12:30 AM)51% (Apr 19, 11:30 AM)29.65 "Hg (Apr 22, 4:30 AM)
Average59 °F76%30.08 "Hg
* Reported Apr 13 10:00 AM — Apr 28 10:00 AM, Ponta Delgada, Weather by CustomWeather, © 2015

Note: Actual official high and low records may vary slightly from our data, if they occured in-between our weather recording intervals... More about our weather records

Advertising

Ponta Delgada weather history for previous 24 hours

 ConditionsComfort  
Time TempWeatherWind HumidityBarometerVisibility
10:00 AM
Tue, Apr 28
61 °FDrizzle. Fog.10 mph100%30.15 "Hg2 mi
9:30 AM61 °FDrizzle. Broken clouds.7 mph94%30.15 "Hg2 mi
9:00 AM61 °FBroken clouds.10 mph94%30.15 "HgN/A
8:30 AM61 °FBroken clouds.10 mph94%30.12 "HgN/A
8:00 AM61 °FScattered clouds.12 mph100%30.12 "HgN/A
7:30 AM61 °FPassing clouds.7 mph100%30.12 "HgN/A
7:00 AM61 °FPartly cloudy.6 mph94%30.12 "HgN/A
6:30 AM61 °FPassing clouds.7 mph94%30.12 "HgN/A
6:00 AM61 °FPassing clouds.8 mph94%30.12 "HgN/A
5:30 AM61 °FPassing clouds.8 mph94%30.12 "HgN/A
5:00 AM61 °FPassing clouds.8 mph94%30.09 "HgN/A
4:30 AM61 °FPassing clouds.8 mph94%30.12 "HgN/A
4:00 AM61 °FPassing clouds.6 mph94%30.12 "HgN/A
3:30 AM61 °FPassing clouds.7 mph94%30.09 "HgN/A
3:00 AM61 °FPassing clouds.7 mph100%30.09 "HgN/A
2:30 AM61 °FFog.7 mph100%30.12 "Hg3 mi
2:00 AM61 °FFog.7 mph100%30.12 "Hg3 mi
1:30 AM61 °FPartly cloudy.7 mph100%30.12 "Hg4 mi
1:00 AM61 °FFog.8 mph100%30.12 "Hg2 mi
12:30 AM61 °FPassing clouds.8 mph100%30.12 "HgN/A
12:00 AM61 °FPassing clouds.7 mph100%30.12 "HgN/A
11:30 PM
Mon, Apr 27
61 °FPassing clouds.8 mph100%30.12 "HgN/A
11:00 PM61 °FPassing clouds.6 mph100%30.12 "HgN/A
10:30 PM61 °FPassing clouds.6 mph100%30.12 "HgN/A
10:00 PM61 °FPassing clouds.7 mph100%30.12 "HgN/A
9:30 PM61 °FPassing clouds.6 mph100%30.12 "HgN/A
9:00 PM61 °FPartly sunny.7 mph100%30.12 "HgN/A
8:30 PM61 °FPartly sunny.9 mph100%30.12 "HgN/A
8:00 PM61 °FPartly sunny.10 mph100%30.09 "HgN/A
7:30 PM61 °FScattered clouds.12 mph100%30.09 "HgN/A
7:00 PM63 °FScattered clouds.15 mph94%30.09 "Hg5 mi
6:30 PM63 °FFog.16 mph94%30.09 "Hg3 mi
6:00 PM63 °FFog.14 mph94%30.09 "Hg3 mi
5:30 PM63 °FFog.14 mph94%30.09 "Hg3 mi
5:00 PM63 °FFog.12 mph94%30.09 "Hg3 mi
4:30 PM63 °FFog.9 mph94%30.09 "Hg1 mi
4:00 PM63 °FFog.9 mph100%30.09 "Hg1 mi
3:50 PM63 °FFog.9 mph100%30.09 "Hg1 mi
3:30 PM61 °FDrizzle. Fog.8 mph100%30.09 "Hg0 mi
3:00 PM61 °FDrizzle. Fog.10 mph100%30.09 "Hg1 mi
2:30 PM61 °FDrizzle. Fog.14 mph100%30.09 "Hg2 mi
2:00 PM61 °FDrizzle. Fog.13 mph100%30.09 "Hg2 mi
1:30 PM61 °FFog.8 mph94%30.09 "Hg3 mi
1:00 PM61 °FDrizzle. Fog.9 mph94%30.09 "Hg1 mi
12:30 PM61 °FDrizzle. Fog.12 mph94%30.09 "Hg1 mi
12:00 PM59 °FLight rain. Fog.14 mph100%30.09 "Hg1 mi
11:30 AM59 °FLight rain. Fog.13 mph94%30.12 "Hg1 mi
11:00 AM59 °FBroken clouds.9 mph94%30.12 "Hg5 mi
Weather by CustomWeather, © 2015

See weather overviewHow to use our weather pages